Regional Weather Roundup
Issued by NWS Sterling, VA

Home | Current Version | Previous Version | Graphics & Text | Print | Product List | Glossary On
Versions: 1 2 3 4 5 6 7 8 9 10 11 12 13 14 15 16 17 18 19 20 21 22 23 24 25 26 27
000
ASUS41 KLWX 210611
RWRLWX

REGIONAL WEATHER ROUNDUP
NATIONAL WEATHER SERVICE BALTIMORE MD/WASHINGTON DC
200 AM EDT FRI JUL 21 2017

Note: "FAIR" indicates few or no clouds below 12,000 feet
with no significant weather and/or obstructions to visibility.
 TC=TEMPERATURE CELSIUS

 * =Non NWS site. Station does not report precipitation (e.g. rain,
    snow, etc.), thunder, or fog.

DCZ001-MDZ009-015-VAZ040>042-051-053>054-210700-
WASHINGTON METRO

CITY           SKY/WX    TMP DP  RH WIND       PRES   REMARKS
WASHINGTON NAT CLEAR     86  70  58 NW8       29.93F HX  90
DULLES         MOCLDY    76  68  76 CALM      29.95S
ANDREWS AFB    PTCLDY    81  73  76 NW3       29.93S
FT BELVOIR     PTCLDY    81  70  68 NW3       29.93S
QUANTICO       PTCLDY    80  76  87 NW3       29.94F
COLLEGE PARK*  CLEAR     78  74  85 CALM      29.93S
LEESBURG*      PTCLDY    81  72  74 W3        29.96F
MANASSAS*      CLOUDY    75  72  90 S3        29.95S
GAITHERSBURG*  PTCLDY    78  70  76 CALM      29.96F

$$

MDZ006>007-011-014-210700-
BALTIMORE METRO

CITY           SKY/WX    TMP DP  RH WIND       PRES   REMARKS
BWI AIRPORT    MOCLDY    81  70  69 W6        29.92S
MD SCIENCE CTR   N/A     87  71  58 MISG      29.91F HX  93
MARTIN STATE   PTCLDY    86  72  62 SW3       29.92F HX  92
ANNAPOLIS      CLEAR     80  77  90 CALM      29.91F
FORT MEADE*    PTCLDY    73  72  94 CALM      29.95S

$$

MDZ012-015-019>023-210700-
MARYLAND EASTERN SHORE

CITY           SKY/WX    TMP DP  RH WIND       PRES   REMARKS
OCEAN CITY     CLEAR     81  76  84 SW9       29.93F
SALISBURY      NOT AVBL
BAY BRIDGE AP* PTCLDY    82  75  78 SW5       29.92S
CAMBRIDGE*     MOCLDY    82  75  78 CALM      29.92F
EASTON*        MOCLDY    83  75  76 W5        29.96S HX  91

$$

MDZ017>025-210700-
SOUTHERN MARYLAND

CITY           SKY/WX    TMP DP  RH WIND       PRES   REMARKS
PATUXENT RIVER PTCLDY    81  74  79 SW8       29.92F
ST INIGOES     CLOUDY    84  75  74 SW13      29.92F HX  92
LEONARDTOWN*   PTCLDY   N/A N/A N/A SW7       29.95S

$$

MDZ003>005-210700-
NORTH CENTRAL MARYLAND

CITY           SKY/WX    TMP DP  RH WIND       PRES   REMARKS
FREDERICK*     PTCLDY    79  70  73 SW3       29.97S
HAGERSTOWN APT PTCLDY    82  69  64 CALM      29.96S
WESTMINSTER*   CLOUDY    81  70  69 W6        29.96S

$$

MDZ501>502-210700-
WESTERN MARYLAND

CITY           SKY/WX    TMP DP  RH WIND       PRES   REMARKS
OAKLAND*       CLEAR     68  66  94 W5        30.09F
CUMBERLAND*    MOCLDY    77  70  78 CALM      30.02F

$$

VAZ025>031-210700-
SHENANDOAH VALLEY

CITY           SKY/WX    TMP DP  RH WIND       PRES   REMARKS
WINCHESTER*    CLOUDY    73  64  73 CALM      29.97F
FRONT ROYAL*   CLOUDY    77  66  69 S3        29.97F
LURAY*         PTCLDY    72  68  88 CALM      30.00F
NEW MARKET*    CLOUDY    71  66  86 CALM      30.00F
STAUNTON*      PTCLDY    71  68  91 CALM      30.05F
WAYNESBORO*    PTCLDY    72  69  89 W7        30.05S

$$

WVZ021-048>050-054>055-210700-
EASTERN WEST VIRGINIA PANHANDLE

CITY           SKY/WX    TMP DP  RH WIND       PRES   REMARKS
MARTINSBURG    CLOUDY    78  67  68 S3        29.95F
PETERSBURG*    PTCLDY    74  70  88 CALM      30.01F

$$

VAZ036>039-050-210700-
CENTRAL FOOTHILLS

CITY           SKY/WX    TMP DP  RH WIND       PRES   REMARKS
CHARLOTTESVILL PTCLDY    77  70  79 CALM      29.98S
CULPEPER*      CLOUDY    73  73  99 CALM      29.97S FOG
ORANGE*        PTCLDY    72  70  94 CALM      29.97S
GORDONSVILLE*  CLEAR     73  70  91 CALM      29.97S
WARRENTON*     CLOUDY    72  68  86 CALM      29.95F

$$

VAZ055>057-210700-
NORTH AND CENTRAL PIEDMONT

CITY           SKY/WX    TMP DP  RH WIND       PRES   REMARKS
FREDERICKSBRG* CLEAR     76  74  93 CALM      29.94S
STAFFORD*      CLOUDY    73  73 100 CALM      29.99S FOG

$$

NCZ024-NYZ072-PAZ021-071-VAZ022-071-210700-
OTHER REGIONAL OBSERVATIONS

CITY           SKY/WX    TMP DP  RH WIND       PRES   REMARKS
NEW YORK CITY  CLOUDY    78  67  68 W5        29.92R
PHILADELPHIA   MOCLDY    83  68  60 SW6       29.90S
PITTSBURGH     MOCLDY    75  72  90 SW5       30.00F
ROANOKE        CLOUDY    75  67  76 CALM      30.06F
RICHMOND       CLOUDY    79  72  79 S7        29.96S
RALEIGH        MOCLDY    78  72  81 SW7       30.01F

$$

ANZ530>537-210700-
MARINE OBSERVATIONS

STATION/POSITION TIME  TEMP    WIND        PRES
                       AIR SEA DIR/SP/G
                 (UTC) (F)     (DEG/KT/KT) (MB)
THOMAS PT LIGHT  0600   82 83  260/  7/  7   N/A
BALT KEY BRIDGE  0548          240/  6/  7 1012.7F
COVE POINT       0548          260/ 16/ 20 1013.8F
LEWISETTA        0548          250/  9/ 10 1013.6F
SOLOMONS ISLAND  0548          240/ 11/ 13   N/A
PINEY POINT      0548          260/  6/  8   N/A

$$





USA.gov is the U.S. government's official web portal to all federal, state and local government web resources and services.